STARLINK-1394 (45679 NORAD) Tracking and Keplerian Element Data

This shows tracking and keplerian element data for the satellite.

Feedback or suggestion? Click here.




ElementValue
Catalog45679
NameSTARLINK-1394
Epoch Orbit553
Epoch Day185.50001157
Epoch Year2020
RAAN24.8947
Inclination53.0003
Eccentricity0.0001416
Argument of Perigee86.5186
Mean Anonmoly22.3038
Mean Motion15.62825758
Decay Rate-0.00157314
L11 45679U 20035Y 20185.50001157 -.00157314 00000-0 -17406-2 0 9999
L22 45679 53.0003 24.8947 0001416 86.5186 22.3038 15.62825758 5534

Live tracking and technical data element details for STARLINK-1394 (NORAD 45679). STARLINK-1394 can be tracked NOW for your location showing map with azimuth and elevation plus other details from your city location.

Track the satellite on the map from your city or location and see movement details for azimuth, elevation, latitude, longitude, range, height, and movement on the map or in text.







IsCatalogInMostPopularTable: catalog: 45679, numindb: 4
Update: records affected: 1



GetName: 45679 STARLINK-1394

Hit Count: updated at: Sat, 04 Jul 2020 01:44:15 GMT